Flag for Kazakhstan Weather past 2 weeks in Qyzylorda, Kazakhstan

Now
81 °F

Sunny.


Feels Like: 79 °F
Forecast: 59 / 82 °F
Wind: 8 mph from North

Location: Kzyl-Orda

Current Time: Jul 30, 2014 at 4:34:58 PM

Latest Report: Jul 30, 2014 at 4:00 PM


Visibility: 10 mi

Pressure: 29.98 "Hg

Humidity: 18%

Dew point: 34 °F

Location of QyzylordaLocation

Historic Weather in Qyzylorda — Graph

°F

Qyzylorda temperature yesterday

Maximum temperature yesterday: 77 °F (at 2:00 PM)
Minimum temperature yesterday: 50 °F (at 6:00 AM)
Average temperature yesterday: 68 °F

Past Weeks' High & Low Weather Summary

 TemperatureHumidityPressure
High102 °F (Jul 20, 3:30 PM)72% (Jul 25, 6:00 AM)30.01 "Hg (Jul 25, 6:00 AM)
Low50 °F (Jul 29, 6:00 AM)10% (Jul 20, 3:00 PM)29.47 "Hg (Jul 20, 3:30 PM)
Average77 °F31%29.78 "Hg
* Reported Jul 15 3:00 PM — Jul 30 3:30 PM, Qyzylorda, Weather by CustomWeather, © 2014

Note: Actual official high and low records may vary slightly from our data, if they occured in-between our weather recording intervals... More about our weather records

Advertising

Qyzylorda weather history for previous 24 hours

 ConditionsComfort  
Time TempWeatherWind HumidityBarometerVisibility
3:30 PM
Jul 30
81 °FPassing clouds.8 mph20%29.98 "HgN/A
3:00 PM79 °FPassing clouds.6 mph20%29.98 "HgN/A
2:30 PM79 °FPassing clouds.6 mph20%29.98 "HgN/A
2:00 PM81 °FPassing clouds.6 mph20%29.98 "HgN/A
1:30 PM79 °FPassing clouds.10 mph21%29.98 "HgN/A
1:00 PM79 °FSunny.8 mph20%29.98 "Hg10 mi
12:30 PM77 °FPassing clouds.6 mph22%29.98 "HgN/A
12:00 PM77 °FSunny.8 mph21%29.98 "Hg10 mi
11:30 AM77 °FPassing clouds.6 mph22%29.98 "HgN/A
11:00 AM75 °FSunny.6 mph25%29.98 "Hg10 mi
10:30 AM73 °FSunny.3 mph29%29.98 "Hg10 mi
10:00 AM72 °FSunny.3 mph31%29.98 "Hg10 mi
9:30 AM68 °FSunny.3 mph35%29.98 "Hg10 mi
9:00 AM66 °FSunny.3 mph37%29.98 "Hg10 mi
8:30 AM63 °FSunny.3 mph42%29.98 "Hg10 mi
8:00 AM59 °FSunny.3 mph48%29.98 "Hg10 mi
7:30 AM55 °FSunny.3 mph55%29.98 "Hg10 mi
7:00 AM54 °FSunny.3 mph58%29.95 "Hg10 mi
6:30 AM52 °FSunny.3 mph62%29.95 "Hg10 mi
6:00 AM52 °FClear.3 mph62%29.95 "Hg10 mi
5:30 AM52 °FClear.6 mph62%29.95 "Hg10 mi
5:00 AM52 °FClear.6 mph58%29.92 "Hg10 mi
4:00 AM54 °FClear.6 mph58%29.95 "Hg10 mi
3:00 AM55 °FClear.1 mph59%29.95 "Hg10 mi
2:00 AM57 °FClear.3 mph55%29.95 "Hg10 mi
1:00 AM61 °FClear.1 mph42%29.95 "Hg10 mi
12:00 AM61 °FClear.1 mph42%29.95 "Hg10 mi
11:00 PM
Jul 29
61 °FClear.No wind45%29.95 "Hg10 mi
10:00 PM66 °FClear.3 mph32%29.92 "Hg10 mi
9:00 PM70 °FSunny.3 mph29%29.92 "Hg10 mi
8:30 PM73 °FSunny.3 mph23%29.92 "Hg10 mi
8:00 PM75 °FSunny.6 mph21%29.92 "Hg10 mi
7:30 PM77 °FPassing clouds.8 mph19%29.92 "HgN/A
7:00 PM77 °FSunny.6 mph19%29.92 "Hg10 mi
6:30 PM77 °FSunny.6 mph19%29.92 "Hg10 mi
6:00 PM77 °FSunny.10 mph18%29.92 "Hg10 mi
5:30 PM77 °FPassing clouds.8 mph19%29.92 "HgN/A
5:00 PM77 °FPassing clouds.8 mph19%29.92 "HgN/A
4:30 PM77 °FPassing clouds.8 mph19%29.92 "HgN/A
4:00 PM77 °FSunny.8 mph21%29.92 "Hg10 mi
Weather by CustomWeather, © 2014

See weather overviewHow to use our weather pages